Regional Weather Roundup
Issued by NWS

Home | Current Version | Previous Version | Text Only | Print | Product List | Glossary Off
Versions: 1 2 3 4 5 6 7 8 9 10 11 12 13 14 15 16 17 18 19 20 21 22 23 24 25 26 27 28 29 30 31 32 33 34 35 36 37 38 39 40 41 42 43 44 45 46 47 48 49 50

000
ASUS44 KMEG 161910
RWRTN
TENNESSEE HOURLY STATE WEATHER ROUNDUP
NATIONAL WEATHER SERVICE MEMPHIS TN
100 PM CST SAT DEC 16 2017

TNZ002-004-019-021-049-052-054-088>092-162000-
WEST TENNESSEE

CITY           SKY/WX    TMP DP  RH WIND       PRES   REMARKS
MEMPHIS INTL   CLOUDY    54  31  41 SW12G22   30.18F
NWS MEMPHIS      N/A     53 N/A N/A MISG        N/A
JACKSON        SUNNY     54  30  40 SW8G18    30.17F
DYERSBURG      CLOUDY    54  31  41 SW8       30.16F
SOMERVILLE     SUNNY     54  30  40 S14       30.16F
COVINGTON      SUNNY     54  28  37 SW15      30.16F
UNION CITY     SUNNY     52  28  40 SW12G21   30.15F
BOLIVAR        SUNNY     54  30  40 S9G15     30.18F
PARIS          SUNNY     52  30  43 SW14      30.15F
HUNTINGDON     SUNNY     54  30  40 SW10G20   30.16F
LEXINGTON      SUNNY     52  30  43 S12       30.18F
SELMER         SUNNY     52  30  43 S8G14     30.19F
SAVANNAH       SUNNY     52  30  43 S16       30.20F
$$

TNZ008-025-027-028-033-062-065-066-162000-
NORTH MIDDLE TENNESSEE

CITY           SKY/WX    TMP DP  RH WIND       PRES   REMARKS
NASHVILLE      PTSUNNY   51  29  42 SW8G20    30.20F
PORTLAND       SUNNY     50  30  46 SW12      30.16F
CLARKSVILLE    SUNNY     52  26  36 SW16G26   30.15F
SMYRNA         SUNNY     52  30  43 SW10      30.22F
COOKEVILLE     SUNNY     48  30  49 SW9       30.20F
GALLATIN       SUNNY     50  30  46 SW13G18   30.21F
CROSSVILLE     SUNNY     47  27  45 VRB7      30.19F
$$

TNZ061-075-076-078-094-096-097-162000-
SOUTH MIDDLE TENNESSEE

CITY           SKY/WX    TMP DP  RH WIND       PRES   REMARKS
FAYETTEVILLE   SUNNY     48  28  46 S10       30.22F
TULLAHOMA      SUNNY     48  28  46 S9        30.21F
WINCHESTER     SUNNY     48  28  46 SW5       30.23F
MCMINNVILLE    SUNNY     48  28  46 SW10G17   30.22S
COLUMBIA       SUNNY     50  30  46 SW12      30.19F
SHELBYVILLE    SUNNY     48  30  49 S10G17    30.22F
$$

TNZ017-018-042-046-047-162000-
NORTHEAST TENNESSEE

CITY           SKY/WX    TMP DP  RH WIND       PRES   REMARKS
TRI CITIES     MOSUNNY   45  26  47 W15       30.20F
ELIZABETHTON   SUNNY     46  27  46 VRB5G14   30.20F
$$

TNZ012-013-036-069-073-074-162000-
CENTRAL EAST TENNESSEE

CITY           SKY/WX    TMP DP  RH WIND       PRES   REMARKS
KNOXVILLE      PTSUNNY   47  29  49 SW13      30.22F
OAK RIDGE      SUNNY     45  28  51 VRB3      30.24F
DOWNTOWN KNOXV SUNNY     48  28  46 W10       30.23F
GATLINBURG     SUNNY     48  27  43 NW8       30.22S
MORRISTOWN     SUNNY     45  27  49 NW8       30.21F
JACKSBORO      SUNNY     46  27  46 CALM      30.24S
$$

TNZ083-085-099-162000-
SOUTHEAST TENNESSEE

CITY           SKY/WX    TMP DP  RH WIND       PRES   REMARKS
CHATTANOOGA    PTSUNNY   48  27  44 S5        30.25F
DAYTON         CLEAR     48  32  53 S6G13     30.23F
$$

SKY/WX REPORTED AS FAIR MEANS FEW OR NO CLOUDS BELOW
12 THOUSAND FEET.





USA.gov is the U.S. government's official web portal to all federal, state and local government web resources and services.